Volver al catálogo

SL-16 DEB

ActivoLEO
NORAD 22645·DEBRIS·🇷🇺 Russia

Lanzado Mar 26, 1993 desde Baikonur Cosmodrome

Loading…

Próximos Pases (próximas 24 horas)

TLE

ActualizadoSource: Space-Track

Época: Sep 14, 2026, 04:08 UTC

1 22645U 93016AF  26257.17230338  .00000407  00000-0  34621-3 0  9997
2 22645  70.9863 167.2890 0167956 212.2457 146.8297 13.86819181684678

Sigue SL-16 DEB en tiempo real con AllMySat

Download on the App Store